• In Hungary
  • List of Countries
  • For 7 days
  • Water Temperature
  • Satellite Maps
  • Weather Map
  • News
  • Weather Widgets
  • user-avatar
    Login

    Hourly Weather Rybnica

    Today, 23 October, Tuesday

    Time Temperature Precipitation Wind Pressure Humidity
    00:00 +4°C° 0 mm 2 mps 733 mmHg 89%
    01:00 +3°C° 0 mm 2 mps 733 mmHg 92%
    02:00 +3°C° 0 mm 2 mps 732 mmHg 91%
    03:00 +2°C° 0 mm 3 mps 732 mmHg 90%
    04:00 +2°C° 0 mm 3 mps 731 mmHg 89%
    05:00 +1°C° 0 mm 4 mps 730 mmHg 87%
    06:00 +3°C° 0 mm 4 mps 730 mmHg 85%
    07:00 +2°C° 0 mm 5 mps 729 mmHg 84%
    08:00 +3°C° 0 mm 6 mps 728 mmHg 77%
    09:00 +4°C° 0 mm 7 mps 727 mmHg 70%
    10:00 +6°C° 0 mm 8 mps 727 mmHg 64%
    11:00 +6°C° 0.5 mm 8 mps 726 mmHg 67%
    12:00 +5°C° 0.5 mm 9 mps 725 mmHg 70%
    13:00 +5°C° 0.5 mm 9 mps 724 mmHg 74%
    14:00 +6°C° 0.3 mm 9 mps 723 mmHg 76%
    15:00 +6°C° 0.3 mm 9 mps 722 mmHg 78%
    16:00 +6°C° 0.3 mm 10 mps 722 mmHg 80%
    17:00 +7°C° 0.5 mm 10 mps 721 mmHg 80%
    18:00 +7°C° 0.5 mm 10 mps 720 mmHg 81%
    19:00 +8°C° 0.5 mm 10 mps 720 mmHg 82%
    20:00 +8°C° 0.8 mm 10 mps 720 mmHg 82%
    21:00 +8°C° 0.8 mm 10 mps 719 mmHg 83%
    22:00 +9°C° 0.8 mm 10 mps 719 mmHg 83%
    23:00 +8°C° 1.2 mm 10 mps 718 mmHg 83%

    Tomorrow, 24 October, Wednesday

    Time Temperature Precipitation Wind Pressure Humidity
    00:00 +8°C° 1.2 mm 10 mps 718 mmHg 83%
    01:00 +8°C° 1.2 mm 10 mps 718 mmHg 83%
    02:00 +8°C° 1 mm 10 mps 718 mmHg 81%
    03:00 +7°C° 1 mm 10 mps 718 mmHg 79%
    04:00 +6°C° 1 mm 10 mps 718 mmHg 77%
    05:00 +6°C° 0.2 mm 9 mps 718 mmHg 76%
    06:00 +5°C° 0.2 mm 9 mps 719 mmHg 76%
    07:00 +4°C° 0.2 mm 8 mps 720 mmHg 76%
    08:00 +3°C° 0.1 mm 9 mps 720 mmHg 72%
    09:00 +3°C° 0.1 mm 9 mps 721 mmHg 68%
    10:00 +5°C° 0.1 mm 9 mps 721 mmHg 64%
    11:00 +5°C° 0.1 mm 9 mps 722 mmHg 61%
    12:00 +5°C° 0.1 mm 9 mps 722 mmHg 58%
    13:00 +5°C° 0.1 mm 9 mps 723 mmHg 56%
    14:00 +5°C° 0 mm 8 mps 723 mmHg 57%
    15:00 +5°C° 0 mm 7 mps 724 mmHg 58%
    16:00 +5°C° 0 mm 6 mps 724 mmHg 58%
    17:00 +4°C° 0 mm 6 mps 725 mmHg 62%
    18:00 +3°C° 0 mm 5 mps 725 mmHg 65%
    19:00 +4°C° 0 mm 4 mps 726 mmHg 68%
    20:00 +3°C° 0 mm 4 mps 726 mmHg 71%
    21:00 +3°C° 0 mm 4 mps 726 mmHg 74%
    22:00 +2°C° 0 mm 3 mps 726 mmHg 76%
    23:00 +2°C° 0 mm 3 mps 726 mmHg 79%

    Day after tomorrow, 25 October, Thursday

    Time Temperature Precipitation Wind Pressure Humidity
    00:00 +3°C° 0 mm 3 mps 726 mmHg 81%
    01:00 +3°C° 0 mm 4 mps 725 mmHg 83%
    02:00 +4°C° 0.2 mm 4 mps 725 mmHg 85%
    03:00 +4°C° 0.2 mm 4 mps 724 mmHg 87%
    04:00 +5°C° 0.2 mm 4 mps 724 mmHg 88%
    05:00 +6°C° 0.3 mm 5 mps 723 mmHg 88%
    06:00 +8°C° 0.3 mm 6 mps 723 mmHg 87%
    07:00 +9°C° 0.3 mm 7 mps 723 mmHg 86%
    08:00 +9°C° 0.1 mm 8 mps 722 mmHg 85%
    09:00 +9°C° 0.1 mm 8 mps 722 mmHg 83%
    10:00 +9°C° 0.1 mm 8 mps 722 mmHg 81%
    11:00 +10°C° 0 mm 8 mps 722 mmHg 79%
    12:00 +10°C° 0 mm 8 mps 722 mmHg 76%
    13:00 +10°C° 0 mm 9 mps 722 mmHg 74%
    14:00 +10°C° 0 mm 8 mps 722 mmHg 74%
    15:00 +10°C° 0 mm 8 mps 722 mmHg 75%
    16:00 +10°C° 0 mm 7 mps 722 mmHg 76%
    17:00 +9°C° 0.1 mm 7 mps 722 mmHg 77%
    18:00 +9°C° 0.1 mm 7 mps 722 mmHg 79%
    19:00 +9°C° 0.1 mm 6 mps 722 mmHg 81%
    20:00 +9°C° 0.2 mm 6 mps 722 mmHg 82%
    21:00 +8°C° 0.2 mm 6 mps 723 mmHg 82%
    22:00 +8°C° 0.2 mm 5 mps 723 mmHg 83%
    23:00 +8°C° 0.1 mm 5 mps 723 mmHg 84%

    26 October, Friday

    Time Temperature Precipitation Wind Pressure Humidity
    00:00 +7°C° 0.1 mm 4 mps 723 mmHg 85%
    01:00 +7°C° 0.1 mm 4 mps 723 mmHg 86%
    02:00 +7°C° 0.1 mm 4 mps 723 mmHg 87%
    03:00 +8°C° 0.1 mm 3 mps 723 mmHg 87%
    04:00 +8°C° 0.1 mm 3 mps 722 mmHg 88%
    05:00 +7°C° 0 mm 3 mps 722 mmHg 89%
    06:00 +7°C° 0 mm 3 mps 722 mmHg 90%
    07:00 +7°C° 0 mm 3 mps 722 mmHg 91%
    08:00 +8°C° 0 mm 3 mps 722 mmHg 86%
    09:00 +9°C° 0 mm 3 mps 722 mmHg 81%
    10:00 +10°C° 0 mm 3 mps 722 mmHg 75%
    11:00 +11°C° 0 mm 4 mps 721 mmHg 72%
    12:00 +11°C° 0 mm 4 mps 721 mmHg 69%
    13:00 +12°C° 0 mm 5 mps 721 mmHg 65%
    14:00 +12°C° 0 mm 4 mps 720 mmHg 66%
    15:00 +11°C° 0 mm 4 mps 720 mmHg 68%
    16:00 +10°C° 0 mm 4 mps 719 mmHg 69%
    17:00 +8°C° 0 mm 4 mps 719 mmHg 72%
    18:00 +8°C° 0 mm 4 mps 719 mmHg 76%
    19:00 +8°C° 0 mm 3 mps 718 mmHg 79%
    20:00 +7°C° 0 mm 3 mps 718 mmHg 81%
    21:00 +7°C° 0 mm 3 mps 718 mmHg 82%
    22:00 +7°C° 0 mm 3 mps 718 mmHg 84%
    23:00 +5°C° 0 mm 3 mps 718 mmHg 85%

    27 October, Saturday

    Time Temperature Precipitation Wind Pressure Humidity
    00:00 +5°C° 0 mm 3 mps 718 mmHg 85%
    01:00 +5°C° 0 mm 3 mps 718 mmHg 86%
    02:00 +5°C° 0 mm 3 mps 718 mmHg 85%
    03:00 +5°C° 0 mm 4 mps 718 mmHg 85%
    04:00 +5°C° 0 mm 4 mps 718 mmHg 84%
    05:00 +5°C° 0.1 mm 4 mps 718 mmHg 84%
    06:00 +5°C° 0.1 mm 4 mps 718 mmHg 85%
    07:00 +5°C° 0.1 mm 4 mps 718 mmHg 85%
    08:00 +5°C° 0 mm 4 mps 718 mmHg 79%
    09:00 +6°C° 0 mm 4 mps 719 mmHg 74%
    10:00 +6°C° 0 mm 5 mps 719 mmHg 68%
    11:00 +7°C° 0 mm 4 mps 719 mmHg 65%
    12:00 +7°C° 0 mm 4 mps 719 mmHg 62%
    13:00 +7°C° 0 mm 4 mps 719 mmHg 59%
    14:00 +8°C° 0 mm 3 mps 719 mmHg 60%
    15:00 +7°C° 0 mm 3 mps 719 mmHg 62%
    16:00 +7°C° 0 mm 2 mps 719 mmHg 64%
    17:00 +6°C° 0 mm 2 mps 720 mmHg 67%
    18:00 +7°C° 0 mm 1 mps 720 mmHg 70%
    19:00 +6°C° 0 mm 1 mps 720 mmHg 73%
    20:00 +6°C° 0 mm 1 mps 720 mmHg 74%
    21:00 +6°C° 0 mm 1 mps 720 mmHg 74%
    22:00 +5°C° 0 mm 1 mps 720 mmHg 75%
    23:00 +5°C° 0 mm 1 mps 720 mmHg 76%

    28 October, Sunday

    Time Temperature Precipitation Wind Pressure Humidity
    00:00 +5°C° 0 mm 1 mps 720 mmHg 76%
    01:00 +5°C° 0 mm 1 mps 720 mmHg 77%
    02:00 +4°C° 0.1 mm 2 mps 720 mmHg 78%
    03:00 +4°C° 0.1 mm 2 mps 720 mmHg 79%
    04:00 +4°C° 0.1 mm 2 mps 720 mmHg 80%
    05:00 +3°C° 0.1 mm 2 mps 719 mmHg 81%
    06:00 +2°C° 0.1 mm 3 mps 719 mmHg 81%
    07:00 +2°C° 0.1 mm 3 mps 719 mmHg 82%
    08:00 +2°C° 0.2 mm 3 mps 719 mmHg 81%
    09:00 +3°C° 0.2 mm 4 mps 719 mmHg 80%
    10:00 +3°C° 0.2 mm 4 mps 719 mmHg 79%
    11:00 +2°C° 0.2 mm 5 mps 719 mmHg 77%
    12:00 +2°C° 0.2 mm 5 mps 719 mmHg 76%
    13:00 +3°C° 0.2 mm 5 mps 719 mmHg 75%
    14:00 +2°C° 0.8 mm 5 mps 718 mmHg 77%
    15:00 +2°C° 0.8 mm 5 mps 718 mmHg 80%
    16:00 +1°C° 0.8 mm 5 mps 718 mmHg 83%
    17:00 +1°C° 0.4 mm 6 mps 718 mmHg 84%
    18:00 +1°C° 0.4 mm 6 mps 717 mmHg 85%
    19:00 +1°C° 0.4 mm 6 mps 717 mmHg 86%
    20:00 +1°C° 0.8 mm 6 mps 717 mmHg 86%
    21:00 +1°C° 0.8 mm 6 mps 716 mmHg 87%
    22:00 0°C° 0.8 mm 7 mps 716 mmHg 88%
    23:00 0°C° 1.5 mm 7 mps 716 mmHg 88%

    29 October, Monday

    Time Temperature Precipitation Wind Pressure Humidity
    00:00 -1°C° 1.5 mm 7 mps 715 mmHg 88%
    01:00 -1°C° 1.5 mm 7 mps 714 mmHg 88%
    02:00 -1°C° 0.8 mm 6 mps 714 mmHg 89%
    03:00 -1°C° 0.8 mm 6 mps 713 mmHg 89%
    04:00 -2°C° 0.8 mm 6 mps 713 mmHg 90%
    05:00 -2°C° 0.4 mm 6 mps 713 mmHg 90%
    06:00 -1°C° 0.4 mm 5 mps 712 mmHg 91%
    07:00 -1°C° 0.4 mm 5 mps 712 mmHg 91%
    08:00 -1°C° 0.9 mm 5 mps 712 mmHg 92%
    09:00 -1°C° 0.9 mm 4 mps 711 mmHg 92%
    10:00 -1°C° 0.9 mm 4 mps 711 mmHg 93%
    11:00 -1°C° 0.6 mm 4 mps 711 mmHg 93%
    12:00 0°C° 0.6 mm 3 mps 711 mmHg 93%
    13:00 0°C° 0.6 mm 3 mps 711 mmHg 93%
    14:00 0°C° 0.1 mm 3 mps 710 mmHg 93%
    15:00 0°C° 0.1 mm 3 mps 710 mmHg 94%
    16:00 +1°C° 0.1 mm 2 mps 710 mmHg 94%
    17:00 +1°C° 0.1 mm 2 mps 710 mmHg 95%
    18:00 +1°C° 0.1 mm 2 mps 710 mmHg 95%
    19:00 +1°C° 0.1 mm 2 mps 710 mmHg 95%
    20:00 +1°C° 0.7 mm 2 mps 710 mmHg 96%
    21:00 +1°C° 0.7 mm 2 mps 710 mmHg 96%
    22:00 +1°C° 0.7 mm 2 mps 710 mmHg 96%
    23:00 +1°C° 0.7 mm 2 mps 710 mmHg 96%
    Show more